Data supplied by UK-AIR on 9/6/2008
All Data GMT hour ending 
Status: R =Ratified P=Provisional,P*=As supplied
,,Canterbury,,,,,,,,,,,,,,,,,,,,,,,
Date,time,"PM10 particulate matter (Hourly measured)",status,unit,"Nitric oxide",status,unit,"Nitrogen dioxide",status,unit,"Nitrogen oxides as nitrogen dioxide",status,unit
 
01-01-2006,01:00,26,R,ugm-3 (GRAV EQ),1,R,ugm-3,4,R,ugm-3,6,R,ugm-3
01-01-2006,02:00,22,R,ugm-3 (GRAV EQ),3,R,ugm-3,4,R,ugm-3,8,R,ugm-3
01-01-2006,03:00,29,R,ugm-3 (GRAV EQ),1,R,ugm-3,6,R,ugm-3,8,R,ugm-3
01-01-2006,04:00,13,R,ugm-3 (GRAV EQ),0,R,ugm-3,2,R,ugm-3,2,R,ugm-3
01-01-2006,05:00,5,R,ugm-3 (GRAV EQ),1,R,ugm-3,4,R,ugm-3,6,R,ugm-3
01-01-2006,06:00,8,R,ugm-3 (GRAV EQ),1,R,ugm-3,11,R,ugm-3,13,R,ugm-3
01-01-2006,07:00,8,R,ugm-3 (GRAV EQ),3,R,ugm-3,27,R,ugm-3,31,R,ugm-3
01-01-2006,08:00,14,R,ugm-3 (GRAV EQ),4,R,ugm-3,23,R,ugm-3,29,R,ugm-3
01-01-2006,09:00,14,R,ugm-3 (GRAV EQ),5,R,ugm-3,23,R,ugm-3,31,R,ugm-3
01-01-2006,10:00,16,R,ugm-3 (GRAV EQ),4,R,ugm-3,11,R,ugm-3,17,R,ugm-3
01-01-2006,11:00,17,R,ugm-3 (GRAV EQ),4,R,ugm-3,8,R,ugm-3,13,R,ugm-3
01-01-2006,12:00,21,R,ugm-3 (GRAV EQ),4,R,ugm-3,8,R,ugm-3,13,R,ugm-3
01-01-2006,13:00,27,R,ugm-3 (GRAV EQ),4,R,ugm-3,10,R,ugm-3,15,R,ugm-3
01-01-2006,14:00,33,R,ugm-3 (GRAV EQ),5,R,ugm-3,13,R,ugm-3,21,R,ugm-3
01-01-2006,15:00,36,R,ugm-3 (GRAV EQ),4,R,ugm-3,11,R,ugm-3,17,R,ugm-3
01-01-2006,16:00,35,R,ugm-3 (GRAV EQ),4,R,ugm-3,11,R,ugm-3,17,R,ugm-3
01-01-2006,17:00,34,R,ugm-3 (GRAV EQ),4,R,ugm-3,13,R,ugm-3,19,R,ugm-3
01-01-2006,18:00,27,R,ugm-3 (GRAV EQ),4,R,ugm-3,11,R,ugm-3,17,R,ugm-3
01-01-2006,19:00,23,R,ugm-3 (GRAV EQ),4,R,ugm-3,11,R,ugm-3,17,R,ugm-3
01-01-2006,20:00,21,R,ugm-3 (GRAV EQ),4,R,ugm-3,15,R,ugm-3,21,R,ugm-3
01-01-2006,21:00,21,R,ugm-3 (GRAV EQ),4,R,ugm-3,11,R,ugm-3,17,R,ugm-3
01-01-2006,22:00,25,R,ugm-3 (GRAV EQ),4,R,ugm-3,11,R,ugm-3,17,R,ugm-3
01-01-2006,23:00,20,R,ugm-3 (GRAV EQ),3,R,ugm-3,8,R,ugm-3,11,R,ugm-3
01-01-2006,24:00,17,R,ugm-3 (GRAV EQ),3,R,ugm-3,8,R,ugm-3,11,R,ugm-3
02-01-2006,01:00,20,R,ugm-3 (GRAV EQ),1,R,ugm-3,6,R,ugm-3,8,R,ugm-3
02-01-2006,02:00,18,R,ugm-3 (GRAV EQ),0,R,ugm-3,8,R,ugm-3,8,R,ugm-3
02-01-2006,03:00,23,R,ugm-3 (GRAV EQ),3,R,ugm-3,4,R,ugm-3,8,R,ugm-3
02-01-2006,04:00,22,R,ugm-3 (GRAV EQ),1,R,ugm-3,4,R,ugm-3,6,R,ugm-3
02-01-2006,05:00,21,R,ugm-3 (GRAV EQ),1,R,ugm-3,6,R,ugm-3,8,R,ugm-3
02-01-2006,06:00,22,R,ugm-3 (GRAV EQ),3,R,ugm-3,10,R,ugm-3,13,R,ugm-3
02-01-2006,07:00,22,R,ugm-3 (GRAV EQ),3,R,ugm-3,13,R,ugm-3,17,R,ugm-3
02-01-2006,08:00,23,R,ugm-3 (GRAV EQ),3,R,ugm-3,11,R,ugm-3,15,R,ugm-3
02-01-2006,09:00,27,R,ugm-3 (GRAV EQ),5,R,ugm-3,13,R,ugm-3,21,R,ugm-3
02-01-2006,10:00,29,R,ugm-3 (GRAV EQ),4,R,ugm-3,13,R,ugm-3,19,R,ugm-3
02-01-2006,11:00,31,R,ugm-3 (GRAV EQ),6,R,ugm-3,15,R,ugm-3,25,R,ugm-3
02-01-2006,12:00,30,R,ugm-3 (GRAV EQ),5,R,ugm-3,13,R,ugm-3,21,R,ugm-3
02-01-2006,13:00,20,R,ugm-3 (GRAV EQ),5,R,ugm-3,11,R,ugm-3,19,R,ugm-3
02-01-2006,14:00,17,R,ugm-3 (GRAV EQ),5,R,ugm-3,15,R,ugm-3,23,R,ugm-3
02-01-2006,15:00,16,R,ugm-3 (GRAV EQ),5,R,ugm-3,13,R,ugm-3,21,R,ugm-3
02-01-2006,16:00,14,R,ugm-3 (GRAV EQ),5,R,ugm-3,19,R,ugm-3,27,R,ugm-3
02-01-2006,17:00,17,R,ugm-3 (GRAV EQ),4,R,ugm-3,23,R,ugm-3,29,R,ugm-3
02-01-2006,18:00,25,R,ugm-3 (GRAV EQ),16,R,ugm-3,34,R,ugm-3,59,R,ugm-3
02-01-2006,19:00,27,R,ugm-3 (GRAV EQ),21,R,ugm-3,36,R,ugm-3,69,R,ugm-3
02-01-2006,20:00,26,R,ugm-3 (GRAV EQ),24,R,ugm-3,36,R,ugm-3,73,R,ugm-3
02-01-2006,21:00,31,R,ugm-3 (GRAV EQ),30,R,ugm-3,32,R,ugm-3,78,R,ugm-3
02-01-2006,22:00,31,R,ugm-3 (GRAV EQ),39,R,ugm-3,31,R,ugm-3,90,R,ugm-3
02-01-2006,23:00,29,R,ugm-3 (GRAV EQ),34,R,ugm-3,21,R,ugm-3,73,R,ugm-3
02-01-2006,24:00,27,R,ugm-3 (GRAV EQ),20,R,ugm-3,19,R,ugm-3,50,R,ugm-3
03-01-2006,01:00,23,R,ugm-3 (GRAV EQ),11,R,ugm-3,21,R,ugm-3,38,R,ugm-3
03-01-2006,02:00,23,R,ugm-3 (GRAV EQ),19,R,ugm-3,21,R,ugm-3,50,R,ugm-3
03-01-2006,03:00,23,R,ugm-3 (GRAV EQ),14,R,ugm-3,21,R,ugm-3,42,R,ugm-3
03-01-2006,04:00,20,R,ugm-3 (GRAV EQ),10,R,ugm-3,19,R,ugm-3,34,R,ugm-3
03-01-2006,05:00,18,R,ugm-3 (GRAV EQ),6,R,ugm-3,21,R,ugm-3,31,R,ugm-3
03-01-2006,06:00,14,R,ugm-3 (GRAV EQ),9,R,ugm-3,27,R,ugm-3,40,R,ugm-3
03-01-2006,07:00,17,R,ugm-3 (GRAV EQ),16,R,ugm-3,31,R,ugm-3,55,R,ugm-3
03-01-2006,08:00,21,R,ugm-3 (GRAV EQ),28,R,ugm-3,36,R,ugm-3,78,R,ugm-3
03-01-2006,09:00,25,R,ugm-3 (GRAV EQ),31,R,ugm-3,40,R,ugm-3,88,R,ugm-3
03-01-2006,10:00,20,R,ugm-3 (GRAV EQ),15,R,ugm-3,38,R,ugm-3,61,R,ugm-3
03-01-2006,11:00,17,R,ugm-3 (GRAV EQ),5,R,ugm-3,27,R,ugm-3,34,R,ugm-3
03-01-2006,12:00,18,R,ugm-3 (GRAV EQ),8,R,ugm-3,29,R,ugm-3,40,R,ugm-3
03-01-2006,13:00,25,R,ugm-3 (GRAV EQ),8,R,ugm-3,31,R,ugm-3,42,R,ugm-3
03-01-2006,14:00,21,R,ugm-3 (GRAV EQ),4,R,ugm-3,19,R,ugm-3,25,R,ugm-3
03-01-2006,15:00,13,R,ugm-3 (GRAV EQ),3,R,ugm-3,17,R,ugm-3,21,R,ugm-3
03-01-2006,16:00,14,R,ugm-3 (GRAV EQ),3,R,ugm-3,25,R,ugm-3,29,R,ugm-3
03-01-2006,17:00,13,R,ugm-3 (GRAV EQ),4,R,ugm-3,27,R,ugm-3,32,R,ugm-3
03-01-2006,18:00,16,R,ugm-3 (GRAV EQ),10,R,ugm-3,46,R,ugm-3,61,R,ugm-3
03-01-2006,19:00,22,R,ugm-3 (GRAV EQ),8,R,ugm-3,50,R,ugm-3,61,R,ugm-3
03-01-2006,20:00,17,R,ugm-3 (GRAV EQ),15,R,ugm-3,53,R,ugm-3,76,R,ugm-3
03-01-2006,21:00,17,R,ugm-3 (GRAV EQ),9,R,ugm-3,52,R,ugm-3,65,R,ugm-3
03-01-2006,22:00,9,R,ugm-3 (GRAV EQ),5,R,ugm-3,46,R,ugm-3,53,R,ugm-3
03-01-2006,23:00,12,R,ugm-3 (GRAV EQ),6,R,ugm-3,44,R,ugm-3,53,R,ugm-3
03-01-2006,24:00,14,R,ugm-3 (GRAV EQ),3,R,ugm-3,34,R,ugm-3,38,R,ugm-3
04-01-2006,01:00,16,R,ugm-3 (GRAV EQ),3,R,ugm-3,25,R,ugm-3,29,R,ugm-3
04-01-2006,02:00,17,R,ugm-3 (GRAV EQ),3,R,ugm-3,21,R,ugm-3,25,R,ugm-3
04-01-2006,03:00,17,R,ugm-3 (GRAV EQ),1,R,ugm-3,11,R,ugm-3,13,R,ugm-3
04-01-2006,04:00,13,R,ugm-3 (GRAV EQ),3,R,ugm-3,6,R,ugm-3,10,R,ugm-3
04-01-2006,05:00,14,R,ugm-3 (GRAV EQ),1,R,ugm-3,6,R,ugm-3,8,R,ugm-3
04-01-2006,06:00,31,R,ugm-3 (GRAV EQ),1,R,ugm-3,6,R,ugm-3,8,R,ugm-3
04-01-2006,07:00,22,R,ugm-3 (GRAV EQ),3,R,ugm-3,8,R,ugm-3,11,R,ugm-3
04-01-2006,08:00,23,R,ugm-3 (GRAV EQ),5,R,ugm-3,32,R,ugm-3,40,R,ugm-3
04-01-2006,09:00,18,R,ugm-3 (GRAV EQ),6,R,ugm-3,21,R,ugm-3,31,R,ugm-3
04-01-2006,10:00,21,R,ugm-3 (GRAV EQ),9,R,ugm-3,23,R,ugm-3,36,R,ugm-3
04-01-2006,11:00,26,R,ugm-3 (GRAV EQ),6,R,ugm-3,21,R,ugm-3,31,R,ugm-3
04-01-2006,12:00,13,R,ugm-3 (GRAV EQ),6,R,ugm-3,23,R,ugm-3,32,R,ugm-3
04-01-2006,13:00,29,R,ugm-3 (GRAV EQ),6,R,ugm-3,17,R,ugm-3,27,R,ugm-3
04-01-2006,14:00,26,R,ugm-3 (GRAV EQ),11,R,ugm-3,17,R,ugm-3,34,R,ugm-3
04-01-2006,15:00,22,R,ugm-3 (GRAV EQ),10,R,ugm-3,27,R,ugm-3,42,R,ugm-3
04-01-2006,16:00,22,R,ugm-3 (GRAV EQ),13,R,ugm-3,40,R,ugm-3,59,R,ugm-3
04-01-2006,17:00,34,R,ugm-3 (GRAV EQ),10,R,ugm-3,44,R,ugm-3,59,R,ugm-3
04-01-2006,18:00,27,R,ugm-3 (GRAV EQ),6,R,ugm-3,32,R,ugm-3,42,R,ugm-3
04-01-2006,19:00,13,R,ugm-3 (GRAV EQ),5,R,ugm-3,23,R,ugm-3,31,R,ugm-3
04-01-2006,20:00,10,R,ugm-3 (GRAV EQ),3,R,ugm-3,11,R,ugm-3,15,R,ugm-3
04-01-2006,21:00,7,R,ugm-3 (GRAV EQ),5,R,ugm-3,8,R,ugm-3,15,R,ugm-3
04-01-2006,22:00,7,R,ugm-3 (GRAV EQ),1,R,ugm-3,8,R,ugm-3,10,R,ugm-3
04-01-2006,23:00,13,R,ugm-3 (GRAV EQ),3,R,ugm-3,10,R,ugm-3,13,R,ugm-3
04-01-2006,24:00,7,R,ugm-3 (GRAV EQ),1,R,ugm-3,6,R,ugm-3,8,R,ugm-3
05-01-2006,01:00,12,R,ugm-3 (GRAV EQ),0,R,ugm-3,15,R,ugm-3,15,R,ugm-3
05-01-2006,02:00,20,R,ugm-3 (GRAV EQ),5,R,ugm-3,31,R,ugm-3,38,R,ugm-3
05-01-2006,03:00,20,R,ugm-3 (GRAV EQ),4,R,ugm-3,27,R,ugm-3,32,R,ugm-3
05-01-2006,04:00,21,R,ugm-3 (GRAV EQ),4,R,ugm-3,27,R,ugm-3,32,R,ugm-3
05-01-2006,05:00,23,R,ugm-3 (GRAV EQ),4,R,ugm-3,23,R,ugm-3,29,R,ugm-3
05-01-2006,06:00,22,R,ugm-3 (GRAV EQ),5,R,ugm-3,25,R,ugm-3,32,R,ugm-3
05-01-2006,07:00,29,R,ugm-3 (GRAV EQ),6,R,ugm-3,23,R,ugm-3,32,R,ugm-3
05-01-2006,08:00,25,R,ugm-3 (GRAV EQ),11,R,ugm-3,27,R,ugm-3,44,R,ugm-3
05-01-2006,09:00,20,R,ugm-3 (GRAV EQ),9,R,ugm-3,29,R,ugm-3,42,R,ugm-3
05-01-2006,10:00,14,R,ugm-3 (GRAV EQ),6,R,ugm-3,19,R,ugm-3,29,R,ugm-3
05-01-2006,11:00,21,R,ugm-3 (GRAV EQ),5,R,ugm-3,15,R,ugm-3,23,R,ugm-3
05-01-2006,12:00,21,R,ugm-3 (GRAV EQ),5,R,ugm-3,11,R,ugm-3,19,R,ugm-3
05-01-2006,13:00,14,R,ugm-3 (GRAV EQ),4,R,ugm-3,8,R,ugm-3,13,R,ugm-3
05-01-2006,14:00,17,R,ugm-3 (GRAV EQ),5,R,ugm-3,21,R,ugm-3,29,R,ugm-3
05-01-2006,15:00,18,R,ugm-3 (GRAV EQ),5,R,ugm-3,21,R,ugm-3,29,R,ugm-3
05-01-2006,16:00,27,R,ugm-3 (GRAV EQ),6,R,ugm-3,27,R,ugm-3,36,R,ugm-3
05-01-2006,17:00,30,R,ugm-3 (GRAV EQ),5,R,ugm-3,31,R,ugm-3,38,R,ugm-3
05-01-2006,18:00,27,R,ugm-3 (GRAV EQ),6,R,ugm-3,27,R,ugm-3,36,R,ugm-3
05-01-2006,19:00,27,R,ugm-3 (GRAV EQ),8,R,ugm-3,27,R,ugm-3,38,R,ugm-3
05-01-2006,20:00,27,R,ugm-3 (GRAV EQ),3,R,ugm-3,25,R,ugm-3,29,R,ugm-3
05-01-2006,21:00,23,R,ugm-3 (GRAV EQ),1,R,ugm-3,29,R,ugm-3,31,R,ugm-3
05-01-2006,22:00,31,R,ugm-3 (GRAV EQ),8,R,ugm-3,34,R,ugm-3,46,R,ugm-3
05-01-2006,23:00,31,R,ugm-3 (GRAV EQ),5,R,ugm-3,34,R,ugm-3,42,R,ugm-3
05-01-2006,24:00,27,R,ugm-3 (GRAV EQ),8,R,ugm-3,34,R,ugm-3,46,R,ugm-3
06-01-2006,01:00,27,R,ugm-3 (GRAV EQ),11,R,ugm-3,34,R,ugm-3,52,R,ugm-3
06-01-2006,02:00,29,R,ugm-3 (GRAV EQ),11,R,ugm-3,34,R,ugm-3,52,R,ugm-3
06-01-2006,03:00,27,R,ugm-3 (GRAV EQ),11,R,ugm-3,32,R,ugm-3,50,R,ugm-3
06-01-2006,04:00,26,R,ugm-3 (GRAV EQ),11,R,ugm-3,31,R,ugm-3,48,R,ugm-3
06-01-2006,05:00,27,R,ugm-3 (GRAV EQ),14,R,ugm-3,34,R,ugm-3,55,R,ugm-3
06-01-2006,06:00,33,R,ugm-3 (GRAV EQ),18,R,ugm-3,34,R,ugm-3,61,R,ugm-3
06-01-2006,07:00,35,R,ugm-3 (GRAV EQ),23,R,ugm-3,32,R,ugm-3,67,R,ugm-3
06-01-2006,08:00,34,R,ugm-3 (GRAV EQ),28,R,ugm-3,38,R,ugm-3,80,R,ugm-3
06-01-2006,09:00,31,R,ugm-3 (GRAV EQ),31,R,ugm-3,46,R,ugm-3,94,R,ugm-3
06-01-2006,10:00,25,R,ugm-3 (GRAV EQ),10,R,ugm-3,27,R,ugm-3,42,R,ugm-3
06-01-2006,11:00,29,R,ugm-3 (GRAV EQ),9,R,ugm-3,23,R,ugm-3,36,R,ugm-3
06-01-2006,12:00,25,R,ugm-3 (GRAV EQ),10,R,ugm-3,23,R,ugm-3,38,R,ugm-3
06-01-2006,13:00,29,R,ugm-3 (GRAV EQ),9,R,ugm-3,23,R,ugm-3,36,R,ugm-3
06-01-2006,14:00,31,R,ugm-3 (GRAV EQ),11,R,ugm-3,27,R,ugm-3,44,R,ugm-3
06-01-2006,15:00,36,R,ugm-3 (GRAV EQ),19,R,ugm-3,40,R,ugm-3,69,R,ugm-3
06-01-2006,16:00,39,R,ugm-3 (GRAV EQ),13,R,ugm-3,40,R,ugm-3,59,R,ugm-3
06-01-2006,17:00,42,R,ugm-3 (GRAV EQ),8,R,ugm-3,40,R,ugm-3,52,R,ugm-3
06-01-2006,18:00,36,R,ugm-3 (GRAV EQ),9,R,ugm-3,38,R,ugm-3,52,R,ugm-3
06-01-2006,19:00,35,R,ugm-3 (GRAV EQ),13,R,ugm-3,38,R,ugm-3,57,R,ugm-3
06-01-2006,20:00,39,R,ugm-3 (GRAV EQ),44,R,ugm-3,48,R,ugm-3,115,R,ugm-3
06-01-2006,21:00,40,R,ugm-3 (GRAV EQ),21,R,ugm-3,46,R,ugm-3,78,R,ugm-3
06-01-2006,22:00,38,R,ugm-3 (GRAV EQ),6,R,ugm-3,38,R,ugm-3,48,R,ugm-3
06-01-2006,23:00,34,R,ugm-3 (GRAV EQ),8,R,ugm-3,40,R,ugm-3,52,R,ugm-3
06-01-2006,24:00,34,R,ugm-3 (GRAV EQ),19,R,ugm-3,38,R,ugm-3,67,R,ugm-3
07-01-2006,01:00,35,R,ugm-3 (GRAV EQ),25,R,ugm-3,38,R,ugm-3,76,R,ugm-3
07-01-2006,02:00,43,R,ugm-3 (GRAV EQ),43,R,ugm-3,36,R,ugm-3,101,R,ugm-3
07-01-2006,03:00,35,R,ugm-3 (GRAV EQ),8,R,ugm-3,36,R,ugm-3,48,R,ugm-3
07-01-2006,04:00,29,R,ugm-3 (GRAV EQ),14,R,ugm-3,32,R,ugm-3,53,R,ugm-3
07-01-2006,05:00,30,R,ugm-3 (GRAV EQ),9,R,ugm-3,25,R,ugm-3,38,R,ugm-3
07-01-2006,06:00,18,R,ugm-3 (GRAV EQ),3,R,ugm-3,19,R,ugm-3,23,R,ugm-3
07-01-2006,07:00,21,R,ugm-3 (GRAV EQ),6,R,ugm-3,29,R,ugm-3,38,R,ugm-3
07-01-2006,08:00,22,R,ugm-3 (GRAV EQ),16,R,ugm-3,40,R,ugm-3,65,R,ugm-3
07-01-2006,09:00,26,R,ugm-3 (GRAV EQ),45,R,ugm-3,46,R,ugm-3,115,R,ugm-3
07-01-2006,10:00,27,R,ugm-3 (GRAV EQ),54,R,ugm-3,44,R,ugm-3,126,R,ugm-3
07-01-2006,11:00,30,R,ugm-3 (GRAV EQ),24,R,ugm-3,34,R,ugm-3,71,R,ugm-3
07-01-2006,12:00,38,R,ugm-3 (GRAV EQ),21,R,ugm-3,31,R,ugm-3,63,R,ugm-3
07-01-2006,13:00,39,R,ugm-3 (GRAV EQ),19,R,ugm-3,29,R,ugm-3,57,R,ugm-3
07-01-2006,14:00,39,R,ugm-3 (GRAV EQ),14,R,ugm-3,29,R,ugm-3,50,R,ugm-3
07-01-2006,15:00,36,R,ugm-3 (GRAV EQ),9,R,ugm-3,31,R,ugm-3,44,R,ugm-3
07-01-2006,16:00,29,R,ugm-3 (GRAV EQ),11,R,ugm-3,42,R,ugm-3,59,R,ugm-3
07-01-2006,17:00,30,R,ugm-3 (GRAV EQ),30,R,ugm-3,42,R,ugm-3,88,R,ugm-3
07-01-2006,18:00,35,R,ugm-3 (GRAV EQ),20,R,ugm-3,42,R,ugm-3,73,R,ugm-3
07-01-2006,19:00,34,R,ugm-3 (GRAV EQ),13,R,ugm-3,46,R,ugm-3,65,R,ugm-3
07-01-2006,20:00,36,R,ugm-3 (GRAV EQ),11,R,ugm-3,48,R,ugm-3,65,R,ugm-3
07-01-2006,21:00,27,R,ugm-3 (GRAV EQ),5,R,ugm-3,42,R,ugm-3,50,R,ugm-3
07-01-2006,22:00,23,R,ugm-3 (GRAV EQ),3,R,ugm-3,40,R,ugm-3,44,R,ugm-3
07-01-2006,23:00,25,R,ugm-3 (GRAV EQ),5,R,ugm-3,42,R,ugm-3,50,R,ugm-3
07-01-2006,24:00,31,R,ugm-3 (GRAV EQ),10,R,ugm-3,46,R,ugm-3,61,R,ugm-3
08-01-2006,01:00,36,R,ugm-3 (GRAV EQ),14,R,ugm-3,38,R,ugm-3,59,R,ugm-3
08-01-2006,02:00,38,R,ugm-3 (GRAV EQ),14,R,ugm-3,36,R,ugm-3,57,R,ugm-3
08-01-2006,03:00,38,R,ugm-3 (GRAV EQ),16,R,ugm-3,38,R,ugm-3,63,R,ugm-3
08-01-2006,04:00,40,R,ugm-3 (GRAV EQ),19,R,ugm-3,36,R,ugm-3,65,R,ugm-3
08-01-2006,05:00,42,R,ugm-3 (GRAV EQ),23,R,ugm-3,34,R,ugm-3,69,R,ugm-3
08-01-2006,06:00,46,R,ugm-3 (GRAV EQ),28,R,ugm-3,34,R,ugm-3,76,R,ugm-3
08-01-2006,07:00,43,R,ugm-3 (GRAV EQ),29,R,ugm-3,34,R,ugm-3,78,R,ugm-3
08-01-2006,08:00,47,R,ugm-3 (GRAV EQ),29,R,ugm-3,36,R,ugm-3,80,R,ugm-3
08-01-2006,09:00,44,R,ugm-3 (GRAV EQ),28,R,ugm-3,32,R,ugm-3,74,R,ugm-3
08-01-2006,10:00,48,R,ugm-3 (GRAV EQ),36,R,ugm-3,34,R,ugm-3,90,R,ugm-3
08-01-2006,11:00,62,R,ugm-3 (GRAV EQ),33,R,ugm-3,32,R,ugm-3,82,R,ugm-3
08-01-2006,12:00,46,R,ugm-3 (GRAV EQ),10,R,ugm-3,25,R,ugm-3,40,R,ugm-3
08-01-2006,13:00,29,R,ugm-3 (GRAV EQ),20,R,ugm-3,29,R,ugm-3,59,R,ugm-3
08-01-2006,14:00,36,R,ugm-3 (GRAV EQ),14,R,ugm-3,25,R,ugm-3,46,R,ugm-3
08-01-2006,15:00,38,R,ugm-3 (GRAV EQ),16,R,ugm-3,31,R,ugm-3,55,R,ugm-3
08-01-2006,16:00,40,R,ugm-3 (GRAV EQ),21,R,ugm-3,34,R,ugm-3,67,R,ugm-3
08-01-2006,17:00,49,R,ugm-3 (GRAV EQ),16,R,ugm-3,34,R,ugm-3,59,R,ugm-3
08-01-2006,18:00,39,R,ugm-3 (GRAV EQ),13,R,ugm-3,34,R,ugm-3,53,R,ugm-3
08-01-2006,19:00,44,R,ugm-3 (GRAV EQ),19,R,ugm-3,34,R,ugm-3,63,R,ugm-3
08-01-2006,20:00,49,R,ugm-3 (GRAV EQ),20,R,ugm-3,32,R,ugm-3,63,R,ugm-3
08-01-2006,21:00,46,R,ugm-3 (GRAV EQ),9,R,ugm-3,29,R,ugm-3,42,R,ugm-3
08-01-2006,22:00,31,R,ugm-3 (GRAV EQ),3,R,ugm-3,27,R,ugm-3,31,R,ugm-3
08-01-2006,23:00,31,R,ugm-3 (GRAV EQ),3,R,ugm-3,25,R,ugm-3,29,R,ugm-3
08-01-2006,24:00,33,R,ugm-3 (GRAV EQ),3,R,ugm-3,27,R,ugm-3,31,R,ugm-3
09-01-2006,01:00,34,R,ugm-3 (GRAV EQ),1,R,ugm-3,32,R,ugm-3,34,R,ugm-3
09-01-2006,02:00,34,R,ugm-3 (GRAV EQ),8,R,ugm-3,34,R,ugm-3,46,R,ugm-3
09-01-2006,03:00,34,R,ugm-3 (GRAV EQ),6,R,ugm-3,34,R,ugm-3,44,R,ugm-3
09-01-2006,04:00,31,R,ugm-3 (GRAV EQ),8,R,ugm-3,32,R,ugm-3,44,R,ugm-3
09-01-2006,05:00,30,R,ugm-3 (GRAV EQ),5,R,ugm-3,34,R,ugm-3,42,R,ugm-3
09-01-2006,06:00,30,R,ugm-3 (GRAV EQ),6,R,ugm-3,34,R,ugm-3,44,R,ugm-3
09-01-2006,07:00,34,R,ugm-3 (GRAV EQ),13,R,ugm-3,36,R,ugm-3,55,R,ugm-3
09-01-2006,08:00,36,R,ugm-3 (GRAV EQ),18,R,ugm-3,38,R,ugm-3,65,R,ugm-3
09-01-2006,09:00,36,R,ugm-3 (GRAV EQ),38,R,ugm-3,34,R,ugm-3,92,R,ugm-3
09-01-2006,10:00,39,R,ugm-3 (GRAV EQ),34,R,ugm-3,34,R,ugm-3,86,R,ugm-3
09-01-2006,11:00,42,R,ugm-3 (GRAV EQ),51,R,ugm-3,38,R,ugm-3,117,R,ugm-3
09-01-2006,12:00,44,R,ugm-3 (GRAV EQ),25,R,ugm-3,34,R,ugm-3,73,R,ugm-3
09-01-2006,13:00,34,R,ugm-3 (GRAV EQ),9,R,ugm-3,31,R,ugm-3,44,R,ugm-3
09-01-2006,14:00,26,R,ugm-3 (GRAV EQ),6,R,ugm-3,25,R,ugm-3,34,R,ugm-3
09-01-2006,15:00,30,R,ugm-3 (GRAV EQ),5,R,ugm-3,27,R,ugm-3,34,R,ugm-3
09-01-2006,16:00,27,R,ugm-3 (GRAV EQ),4,R,ugm-3,27,R,ugm-3,32,R,ugm-3
09-01-2006,17:00,25,R,ugm-3 (GRAV EQ),4,R,ugm-3,29,R,ugm-3,34,R,ugm-3
09-01-2006,18:00,20,R,ugm-3 (GRAV EQ),9,R,ugm-3,32,R,ugm-3,46,R,ugm-3
09-01-2006,19:00,20,R,ugm-3 (GRAV EQ),9,R,ugm-3,32,R,ugm-3,46,R,ugm-3
09-01-2006,20:00,22,R,ugm-3 (GRAV EQ),3,R,ugm-3,29,R,ugm-3,32,R,ugm-3
09-01-2006,21:00,14,R,ugm-3 (GRAV EQ),0,R,ugm-3,21,R,ugm-3,21,R,ugm-3
09-01-2006,22:00,10,R,ugm-3 (GRAV EQ),1,R,ugm-3,19,R,ugm-3,21,R,ugm-3
09-01-2006,23:00,10,R,ugm-3 (GRAV EQ),0,R,ugm-3,15,R,ugm-3,15,R,ugm-3
09-01-2006,24:00,13,R,ugm-3 (GRAV EQ),0,R,ugm-3,17,R,ugm-3,17,R,ugm-3
10-01-2006,01:00,13,R,ugm-3 (GRAV EQ),1,R,ugm-3,15,R,ugm-3,17,R,ugm-3
10-01-2006,02:00,16,R,ugm-3 (GRAV EQ),1,R,ugm-3,15,R,ugm-3,17,R,ugm-3
10-01-2006,03:00,13,R,ugm-3 (GRAV EQ),3,R,ugm-3,8,R,ugm-3,11,R,ugm-3
10-01-2006,04:00,12,R,ugm-3 (GRAV EQ),1,R,ugm-3,8,R,ugm-3,10,R,ugm-3
10-01-2006,05:00,9,R,ugm-3 (GRAV EQ),0,R,ugm-3,6,R,ugm-3,6,R,ugm-3
10-01-2006,06:00,5,R,ugm-3 (GRAV EQ),1,R,ugm-3,6,R,ugm-3,8,R,ugm-3
10-01-2006,07:00,10,R,ugm-3 (GRAV EQ),1,R,ugm-3,8,R,ugm-3,10,R,ugm-3
10-01-2006,08:00,12,R,ugm-3 (GRAV EQ),3,R,ugm-3,10,R,ugm-3,13,R,ugm-3
10-01-2006,09:00,12,R,ugm-3 (GRAV EQ),4,R,ugm-3,11,R,ugm-3,17,R,ugm-3
10-01-2006,10:00,14,R,ugm-3 (GRAV EQ),,,,,,,,,
10-01-2006,11:00,,,,3,R,ugm-3,6,R,ugm-3,10,R,ugm-3
10-01-2006,12:00,18,R,ugm-3 (GRAV EQ),3,R,ugm-3,6,R,ugm-3,10,R,ugm-3
10-01-2006,13:00,17,R,ugm-3 (GRAV EQ),4,R,ugm-3,6,R,ugm-3,11,R,ugm-3
10-01-2006,14:00,20,R,ugm-3 (GRAV EQ),4,R,ugm-3,10,R,ugm-3,15,R,ugm-3
10-01-2006,15:00,21,R,ugm-3 (GRAV EQ),4,R,ugm-3,11,R,ugm-3,17,R,ugm-3
10-01-2006,16:00,23,R,ugm-3 (GRAV EQ),3,R,ugm-3,13,R,ugm-3,17,R,ugm-3
10-01-2006,17:00,22,R,ugm-3 (GRAV EQ),3,R,ugm-3,13,R,ugm-3,17,R,ugm-3
10-01-2006,18:00,22,R,ugm-3 (GRAV EQ),3,R,ugm-3,11,R,ugm-3,15,R,ugm-3
10-01-2006,19:00,22,R,ugm-3 (GRAV EQ),1,R,ugm-3,11,R,ugm-3,13,R,ugm-3
10-01-2006,20:00,21,R,ugm-3 (GRAV EQ),1,R,ugm-3,6,R,ugm-3,8,R,ugm-3
10-01-2006,21:00,22,R,ugm-3 (GRAV EQ),1,R,ugm-3,8,R,ugm-3,10,R,ugm-3
10-01-2006,22:00,23,R,ugm-3 (GRAV EQ),1,R,ugm-3,8,R,ugm-3,10,R,ugm-3
10-01-2006,23:00,21,R,ugm-3 (GRAV EQ),1,R,ugm-3,6,R,ugm-3,8,R,ugm-3
10-01-2006,24:00,22,R,ugm-3 (GRAV EQ),1,R,ugm-3,6,R,ugm-3,8,R,ugm-3
11-01-2006,01:00,22,R,ugm-3 (GRAV EQ),0,R,ugm-3,0,R,ugm-3,0,R,ugm-3
11-01-2006,02:00,16,R,ugm-3 (GRAV EQ),0,R,ugm-3,4,R,ugm-3,4,R,ugm-3
11-01-2006,03:00,21,R,ugm-3 (GRAV EQ),4,R,ugm-3,2,R,ugm-3,8,R,ugm-3
11-01-2006,04:00,18,R,ugm-3 (GRAV EQ),1,R,ugm-3,2,R,ugm-3,4,R,ugm-3
11-01-2006,05:00,22,R,ugm-3 (GRAV EQ),1,R,ugm-3,2,R,ugm-3,4,R,ugm-3
11-01-2006,06:00,22,R,ugm-3 (GRAV EQ),1,R,ugm-3,2,R,ugm-3,4,R,ugm-3
11-01-2006,07:00,18,R,ugm-3 (GRAV EQ),1,R,ugm-3,4,R,ugm-3,6,R,ugm-3
11-01-2006,08:00,22,R,ugm-3 (GRAV EQ),4,R,ugm-3,4,R,ugm-3,10,R,ugm-3
11-01-2006,09:00,22,R,ugm-3 (GRAV EQ),4,R,ugm-3,4,R,ugm-3,10,R,ugm-3
11-01-2006,10:00,16,R,ugm-3 (GRAV EQ),4,R,ugm-3,4,R,ugm-3,10,R,ugm-3
11-01-2006,11:00,13,R,ugm-3 (GRAV EQ),3,R,ugm-3,8,R,ugm-3,11,R,ugm-3
11-01-2006,12:00,14,R,ugm-3 (GRAV EQ),4,R,ugm-3,10,R,ugm-3,15,R,ugm-3
11-01-2006,13:00,16,R,ugm-3 (GRAV EQ),10,R,ugm-3,19,R,ugm-3,34,R,ugm-3
11-01-2006,14:00,18,R,ugm-3 (GRAV EQ),6,R,ugm-3,21,R,ugm-3,31,R,ugm-3
11-01-2006,15:00,20,R,ugm-3 (GRAV EQ),9,R,ugm-3,29,R,ugm-3,42,R,ugm-3
11-01-2006,16:00,25,R,ugm-3 (GRAV EQ),15,R,ugm-3,52,R,ugm-3,74,R,ugm-3
11-01-2006,17:00,27,R,ugm-3 (GRAV EQ),60,R,ugm-3,74,R,ugm-3,166,R,ugm-3
11-01-2006,18:00,31,R,ugm-3 (GRAV EQ),96,R,ugm-3,63,R,ugm-3,210,R,ugm-3
11-01-2006,19:00,34,R,ugm-3 (GRAV EQ),138,R,ugm-3,65,R,ugm-3,275,R,ugm-3
11-01-2006,20:00,38,R,ugm-3 (GRAV EQ),99,R,ugm-3,61,R,ugm-3,212,R,ugm-3
11-01-2006,21:00,34,R,ugm-3 (GRAV EQ),83,R,ugm-3,53,R,ugm-3,180,R,ugm-3
11-01-2006,22:00,25,R,ugm-3 (GRAV EQ),40,R,ugm-3,40,R,ugm-3,101,R,ugm-3
11-01-2006,23:00,20,R,ugm-3 (GRAV EQ),39,R,ugm-3,34,R,ugm-3,94,R,ugm-3
11-01-2006,24:00,22,R,ugm-3 (GRAV EQ),13,R,ugm-3,31,R,ugm-3,50,R,ugm-3
12-01-2006,01:00,23,R,ugm-3 (GRAV EQ),29,R,ugm-3,31,R,ugm-3,74,R,ugm-3
12-01-2006,02:00,18,R,ugm-3 (GRAV EQ),19,R,ugm-3,27,R,ugm-3,55,R,ugm-3
12-01-2006,03:00,17,R,ugm-3 (GRAV EQ),18,R,ugm-3,23,R,ugm-3,50,R,ugm-3
12-01-2006,04:00,16,R,ugm-3 (GRAV EQ),20,R,ugm-3,23,R,ugm-3,53,R,ugm-3
12-01-2006,05:00,16,R,ugm-3 (GRAV EQ),10,R,ugm-3,23,R,ugm-3,38,R,ugm-3
12-01-2006,06:00,13,R,ugm-3 (GRAV EQ),19,R,ugm-3,25,R,ugm-3,53,R,ugm-3
12-01-2006,07:00,17,R,ugm-3 (GRAV EQ),28,R,ugm-3,36,R,ugm-3,78,R,ugm-3
12-01-2006,08:00,18,R,ugm-3 (GRAV EQ),74,R,ugm-3,42,R,ugm-3,155,R,ugm-3
12-01-2006,09:00,22,R,ugm-3 (GRAV EQ),6,R,ugm-3,21,R,ugm-3,31,R,ugm-3
12-01-2006,10:00,16,R,ugm-3 (GRAV EQ),4,R,ugm-3,15,R,ugm-3,21,R,ugm-3
12-01-2006,11:00,20,R,ugm-3 (GRAV EQ),4,R,ugm-3,10,R,ugm-3,15,R,ugm-3
12-01-2006,12:00,21,R,ugm-3 (GRAV EQ),4,R,ugm-3,10,R,ugm-3,15,R,ugm-3
12-01-2006,13:00,21,R,ugm-3 (GRAV EQ),5,R,ugm-3,10,R,ugm-3,17,R,ugm-3
12-01-2006,14:00,20,R,ugm-3 (GRAV EQ),4,R,ugm-3,10,R,ugm-3,15,R,ugm-3
12-01-2006,15:00,18,R,ugm-3 (GRAV EQ),3,R,ugm-3,8,R,ugm-3,11,R,ugm-3
12-01-2006,16:00,14,R,ugm-3 (GRAV EQ),4,R,ugm-3,10,R,ugm-3,15,R,ugm-3
12-01-2006,17:00,16,R,ugm-3 (GRAV EQ),4,R,ugm-3,13,R,ugm-3,19,R,ugm-3
12-01-2006,18:00,16,R,ugm-3 (GRAV EQ),3,R,ugm-3,13,R,ugm-3,17,R,ugm-3
12-01-2006,19:00,13,R,ugm-3 (GRAV EQ),1,R,ugm-3,8,R,ugm-3,10,R,ugm-3
12-01-2006,20:00,12,R,ugm-3 (GRAV EQ),1,R,ugm-3,8,R,ugm-3,10,R,ugm-3
12-01-2006,21:00,16,R,ugm-3 (GRAV EQ),1,R,ugm-3,10,R,ugm-3,11,R,ugm-3
12-01-2006,22:00,12,R,ugm-3 (GRAV EQ),1,R,ugm-3,10,R,ugm-3,11,R,ugm-3
12-01-2006,23:00,12,R,ugm-3 (GRAV EQ),1,R,ugm-3,10,R,ugm-3,11,R,ugm-3
12-01-2006,24:00,12,R,ugm-3 (GRAV EQ),1,R,ugm-3,13,R,ugm-3,15,R,ugm-3
13-01-2006,01:00,14,R,ugm-3 (GRAV EQ),1,R,ugm-3,8,R,ugm-3,10,R,ugm-3
13-01-2006,02:00,12,R,ugm-3 (GRAV EQ),0,R,ugm-3,8,R,ugm-3,8,R,ugm-3
13-01-2006,03:00,12,R,ugm-3 (GRAV EQ),1,R,ugm-3,8,R,ugm-3,10,R,ugm-3
13-01-2006,04:00,12,R,ugm-3 (GRAV EQ),1,R,ugm-3,8,R,ugm-3,10,R,ugm-3
13-01-2006,05:00,13,R,ugm-3 (GRAV EQ),1,R,ugm-3,6,R,ugm-3,8,R,ugm-3
13-01-2006,06:00,13,R,ugm-3 (GRAV EQ),1,R,ugm-3,6,R,ugm-3,8,R,ugm-3
13-01-2006,07:00,13,R,ugm-3 (GRAV EQ),1,R,ugm-3,8,R,ugm-3,10,R,ugm-3
13-01-2006,08:00,16,R,ugm-3 (GRAV EQ),3,R,ugm-3,11,R,ugm-3,15,R,ugm-3
13-01-2006,09:00,20,R,ugm-3 (GRAV EQ),4,R,ugm-3,10,R,ugm-3,15,R,ugm-3
13-01-2006,10:00,18,R,ugm-3 (GRAV EQ),4,R,ugm-3,8,R,ugm-3,13,R,ugm-3
13-01-2006,11:00,17,R,ugm-3 (GRAV EQ),3,R,ugm-3,8,R,ugm-3,11,R,ugm-3
13-01-2006,12:00,14,R,ugm-3 (GRAV EQ),4,R,ugm-3,8,R,ugm-3,13,R,ugm-3
13-01-2006,13:00,16,R,ugm-3 (GRAV EQ),4,R,ugm-3,10,R,ugm-3,15,R,ugm-3
13-01-2006,14:00,21,R,ugm-3 (GRAV EQ),4,R,ugm-3,13,R,ugm-3,19,R,ugm-3
13-01-2006,15:00,21,R,ugm-3 (GRAV EQ),5,R,ugm-3,17,R,ugm-3,25,R,ugm-3
13-01-2006,16:00,18,R,ugm-3 (GRAV EQ),3,R,ugm-3,19,R,ugm-3,23,R,ugm-3
13-01-2006,17:00,22,R,ugm-3 (GRAV EQ),4,R,ugm-3,21,R,ugm-3,27,R,ugm-3
13-01-2006,18:00,25,R,ugm-3 (GRAV EQ),4,R,ugm-3,19,R,ugm-3,25,R,ugm-3
13-01-2006,19:00,25,R,ugm-3 (GRAV EQ),3,R,ugm-3,23,R,ugm-3,27,R,ugm-3
13-01-2006,20:00,27,R,ugm-3 (GRAV EQ),4,R,ugm-3,31,R,ugm-3,36,R,ugm-3
13-01-2006,21:00,26,R,ugm-3 (GRAV EQ),4,R,ugm-3,27,R,ugm-3,32,R,ugm-3
13-01-2006,22:00,27,R,ugm-3 (GRAV EQ),4,R,ugm-3,25,R,ugm-3,31,R,ugm-3
13-01-2006,23:00,31,R,ugm-3 (GRAV EQ),3,R,ugm-3,19,R,ugm-3,23,R,ugm-3
13-01-2006,24:00,30,R,ugm-3 (GRAV EQ),3,R,ugm-3,32,R,ugm-3,36,R,ugm-3
14-01-2006,01:00,31,R,ugm-3 (GRAV EQ),3,R,ugm-3,38,R,ugm-3,42,R,ugm-3
14-01-2006,02:00,27,R,ugm-3 (GRAV EQ),3,R,ugm-3,21,R,ugm-3,25,R,ugm-3
14-01-2006,03:00,25,R,ugm-3 (GRAV EQ),1,R,ugm-3,13,R,ugm-3,15,R,ugm-3
14-01-2006,04:00,25,R,ugm-3 (GRAV EQ),1,R,ugm-3,10,R,ugm-3,11,R,ugm-3
14-01-2006,05:00,26,R,ugm-3 (GRAV EQ),1,R,ugm-3,11,R,ugm-3,13,R,ugm-3
14-01-2006,06:00,30,R,ugm-3 (GRAV EQ),4,R,ugm-3,15,R,ugm-3,21,R,ugm-3
14-01-2006,07:00,33,R,ugm-3 (GRAV EQ),4,R,ugm-3,17,R,ugm-3,23,R,ugm-3
14-01-2006,08:00,35,R,ugm-3 (GRAV EQ),4,R,ugm-3,21,R,ugm-3,27,R,ugm-3
14-01-2006,09:00,33,R,ugm-3 (GRAV EQ),4,R,ugm-3,13,R,ugm-3,19,R,ugm-3
14-01-2006,10:00,33,R,ugm-3 (GRAV EQ),4,R,ugm-3,11,R,ugm-3,17,R,ugm-3
14-01-2006,11:00,33,R,ugm-3 (GRAV EQ),3,R,ugm-3,10,R,ugm-3,13,R,ugm-3
14-01-2006,12:00,30,R,ugm-3 (GRAV EQ),3,R,ugm-3,8,R,ugm-3,11,R,ugm-3
14-01-2006,13:00,30,R,ugm-3 (GRAV EQ),4,R,ugm-3,8,R,ugm-3,13,R,ugm-3
14-01-2006,14:00,30,R,ugm-3 (GRAV EQ),4,R,ugm-3,10,R,ugm-3,15,R,ugm-3
14-01-2006,15:00,27,R,ugm-3 (GRAV EQ),4,R,ugm-3,10,R,ugm-3,15,R,ugm-3
14-01-2006,16:00,27,R,ugm-3 (GRAV EQ),3,R,ugm-3,11,R,ugm-3,15,R,ugm-3
14-01-2006,17:00,27,R,ugm-3 (GRAV EQ),4,R,ugm-3,10,R,ugm-3,15,R,ugm-3
14-01-2006,18:00,29,R,ugm-3 (GRAV EQ),1,R,ugm-3,15,R,ugm-3,17,R,ugm-3
14-01-2006,19:00,27,R,ugm-3 (GRAV EQ),1,R,ugm-3,11,R,ugm-3,13,R,ugm-3
14-01-2006,20:00,29,R,ugm-3 (GRAV EQ),3,R,ugm-3,8,R,ugm-3,11,R,ugm-3
14-01-2006,21:00,29,R,ugm-3 (GRAV EQ),3,R,ugm-3,10,R,ugm-3,13,R,ugm-3
14-01-2006,22:00,30,R,ugm-3 (GRAV EQ),3,R,ugm-3,10,R,ugm-3,13,R,ugm-3
14-01-2006,23:00,27,R,ugm-3 (GRAV EQ),1,R,ugm-3,8,R,ugm-3,10,R,ugm-3
14-01-2006,24:00,29,R,ugm-3 (GRAV EQ),1,R,ugm-3,8,R,ugm-3,10,R,ugm-3
15-01-2006,01:00,31,R,ugm-3 (GRAV EQ),1,R,ugm-3,11,R,ugm-3,13,R,ugm-3
15-01-2006,02:00,31,R,ugm-3 (GRAV EQ),1,R,ugm-3,10,R,ugm-3,11,R,ugm-3